"read_dt","SO2 (ppb)","flags","PMT voltage (V)","lamp voltage (V)","lamp intensity (Hz)","internal temp (C)","react chamber temp (C)","sample flow (l/min)","pres (mmHg)","SO2 bkg (ppb)","SO2 coefficient"
2016-02-19 00:00:00,1945E-3,5C000400,-0724,0838,12053,031.9,045.5,0.249,763.1,01.16,0.508
2016-02-19 00:01:00,1937E-3,5C000400,-0724,0839,12091,031.9,045.5,0.248,763.1,01.16,0.508
2016-02-19 00:02:00,1875E-3,5C000400,-0724,0836,12052,031.9,045.6,0.249,763.1,01.16,0.508
2016-02-19 00:03:00,1895E-3,5C000400,-0724,0839,12172,031.9,045.6,0.249,763.1,01.16,0.508
2016-02-19 00:04:00,1885E-3,5C000400,-0724,0839,11989,031.9,045.5,0.249,763.1,01.16,0.508
2016-02-19 00:05:00,1851E-3,5C000400,-0724,0838,12123,031.9,045.6,0.249,763.1,01.16,0.508
2016-02-19 00:06:00,1799E-3,5C000400,-0724,0838,12151,031.9,045.6,0.248,763.1,01.16,0.508
2016-02-19 00:07:00,1844E-3,5C000400,-0724,0838,12072,031.9,045.5,0.249,763.1,01.16,0.508
2016-02-19 00:08:00,1881E-3,5C000400,-0724,0838,12144,031.9,045.5,0.249,763.1,01.16,0.508
2016-02-19 00:09:00,1864E-3,5C000400,-0724,0838,12114,031.9,045.5,0.249,763.2,01.16,0.508
2016-02-19 00:10:00,1817E-3,5C000400,-0724,0838,12009,032.0,045.5,0.249,763.1,01.16,0.508
2016-02-19 00:11:00,1904E-3,5C000400,-0724,0838,12116,032.0,045.5,0.248,763.1,01.16,0.508
2016-02-19 00:12:00,1879E-3,5C000400,-0724,0838,12131,032.0,045.5,0.249,763.1,01.16,0.508
2016-02-19 00:13:00,2009E-3,5C000400,-0724,0838,12194,032.0,045.5,0.249,763.1,01.16,0.508
2016-02-19 00:14:00,1916E-3,5C000400,-0724,0838,12117,032.0,045.5,0.249,763.2,01.16,0.508
2016-02-19 00:15:00,1894E-3,5C000400,-0724,0839,12058,032.0,045.6,0.249,763.2,01.16,0.508
2016-02-19 00:16:00,1913E-3,5C000400,-0724,0838,12095,032.0,045.5,0.249,763.2,01.16,0.508
2016-02-19 00:17:00,1830E-3,5C000400,-0724,0838,12081,032.0,045.6,0.248,763.2,01.16,0.508
2016-02-19 00:18:00,1890E-3,5C000400,-0724,0838,12037,032.0,045.6,0.249,763.2,01.16,0.508
2016-02-19 00:19:00,1890E-3,5C000400,-0724,0838,12065,031.9,045.5,0.249,763.2,01.16,0.508
2016-02-19 00:20:00,1904E-3,5C000400,-0724,0838,12097,032.0,045.5,0.249,763.2,01.16,0.508
2016-02-19 00:21:00,1866E-3,5C000400,-0724,0838,12195,032.0,045.5,0.249,763.1,01.16,0.508
2016-02-19 00:22:00,1754E-3,5C000400,-0724,0838,12203,032.0,045.6,0.248,763.2,01.16,0.508
2016-02-19 00:23:00,1817E-3,5C000400,-0724,0838,12145,032.0,045.5,0.248,763.2,01.16,0.508
2016-02-19 00:24:00,1891E-3,5C000400,-0724,0838,12076,032.0,045.6,0.249,763.2,01.16,0.508
2016-02-19 00:25:00,2006E-3,5C000400,-0724,0839,12039,032.0,045.6,0.249,763.2,01.16,0.508
2016-02-19 00:26:00,1775E-3,5C000400,-0724,0838,12218,032.0,045.5,0.249,763.1,01.16,0.508
2016-02-19 00:27:00,1863E-3,5C000400,-0724,0838,12140,032.0,045.5,0.248,763.1,01.16,0.508
2016-02-19 00:28:00,1898E-3,5C000400,-0724,0838,12040,032.0,045.5,0.248,763.1,01.16,0.508
2016-02-19 00:29:00,1897E-3,5C000400,-0724,0838,12293,032.0,045.6,0.249,763.1,01.16,0.508
2016-02-19 00:30:00,1790E-3,5C000400,-0724,0838,12031,032.0,045.5,0.249,763.2,01.16,0.508
2016-02-19 00:31:00,1834E-3,5C000400,-0724,0839,12116,032.0,045.5,0.249,763.3,01.16,0.508
2016-02-19 00:32:00,1939E-3,5C000400,-0724,0838,12179,032.0,045.5,0.249,763.2,01.16,0.508
2016-02-19 00:33:00,1836E-3,5C000400,-0724,0839,12190,032.0,045.6,0.249,763.3,01.16,0.508
2016-02-19 00:34:00,1782E-3,5C000400,-0724,0838,11996,032.0,045.6,0.248,763.3,01.16,0.508
2016-02-19 00:35:00,1860E-3,5C000400,-0724,0839,11998,032.0,045.5,0.248,763.3,01.16,0.508
2016-02-19 00:36:00,1962E-3,5C000400,-0724,0839,12104,032.0,045.5,0.249,763.4,01.16,0.508
2016-02-19 00:37:00,1917E-3,5C000400,-0724,0839,12102,032.0,045.6,0.249,763.3,01.16,0.508
2016-02-19 00:38:00,1912E-3,5C000400,-0724,0837,12168,032.0,045.5,0.249,763.4,01.16,0.508
2016-02-19 00:39:00,1916E-3,5C000400,-0724,0838,12161,032.0,045.5,0.249,763.4,01.16,0.508
2016-02-19 00:40:00,1879E-3,5C000400,-0724,0838,12208,032.1,045.6,0.249,763.3,01.16,0.508
2016-02-19 00:41:00,1837E-3,5C000400,-0724,0837,12008,032.0,045.5,0.248,763.3,01.16,0.508
2016-02-19 00:42:00,1925E-3,5C000400,-0724,0838,12151,032.0,045.5,0.248,763.3,01.16,0.508
2016-02-19 00:43:00,1850E-3,5C000400,-0724,0838,12054,032.0,045.5,0.249,763.2,01.16,0.508
2016-02-19 00:44:00,1923E-3,5C000400,-0724,0838,12115,032.0,045.5,0.249,763.3,01.16,0.508
2016-02-19 00:45:00,1994E-3,5C000400,-0724,0838,11970,032.0,045.5,0.249,763.3,01.16,0.508
2016-02-19 00:46:00,1903E-3,5C000400,-0724,0838,12034,032.0,045.5,0.249,763.3,01.16,0.508
2016-02-19 00:47:00,1945E-3,5C000400,-0724,0838,12039,032.0,045.6,0.249,763.4,01.16,0.508
2016-02-19 00:48:00,1832E-3,5C000400,-0724,0839,12238,032.1,045.6,0.249,763.4,01.16,0.508
2016-02-19 00:49:00,1817E-3,5C000400,-0724,0838,12058,032.0,045.6,0.248,763.4,01.16,0.508
2016-02-19 00:50:00,1831E-3,5C000400,-0724,0838,12038,032.1,045.6,0.248,763.5,01.16,0.508
2016-02-19 00:51:00,1875E-3,5C000400,-0724,0838,12180,032.1,045.6,0.248,763.4,01.16,0.508
2016-02-19 00:52:00,1887E-3,5C000400,-0724,0838,12254,032.0,045.6,0.249,763.4,01.16,0.508
2016-02-19 00:53:00,1860E-3,5C000400,-0724,0839,12119,032.1,045.6,0.249,763.5,01.16,0.508
2016-02-19 00:54:00,1782E-3,5C000400,-0724,0839,12150,032.0,045.6,0.249,763.5,01.16,0.508
2016-02-19 00:55:00,1868E-3,5C000400,-0724,0837,12002,032.1,045.5,0.249,763.5,01.16,0.508
2016-02-19 00:56:00,2016E-3,5C000400,-0724,0838,11963,032.1,045.5,0.248,763.5,01.16,0.508
2016-02-19 00:57:00,1888E-3,5C000400,-0724,0839,12089,032.1,045.5,0.248,763.5,01.16,0.508
2016-02-19 00:58:00,1834E-3,5C000400,-0724,0838,12127,032.1,045.5,0.248,763.5,01.16,0.508
2016-02-19 00:59:00,1800E-3,5C000400,-0724,0838,12211,032.1,045.5,0.249,763.6,01.16,0.508
2016-02-19 01:00:00,1870E-3,5C000400,-0724,0838,12104,032.1,045.6,0.249,763.6,01.16,0.508
2016-02-19 01:01:00,1969E-3,5C000400,-0724,0837,12084,032.1,045.6,0.249,763.6,01.16,0.508
2016-02-19 01:02:00,1939E-3,5C000400,-0724,0837,12073,032.1,045.6,0.249,763.6,01.16,0.508
2016-02-19 01:03:00,1900E-3,5C000400,-0724,0838,12132,032.1,045.6,0.249,763.7,01.16,0.508
2016-02-19 01:04:00,2010E-3,5C000400,-0724,0837,12038,032.1,045.5,0.249,763.7,01.16,0.508
2016-02-19 01:05:00,1863E-3,5C000400,-0724,0838,12032,032.1,045.5,0.248,763.7,01.16,0.508
2016-02-19 01:06:00,1815E-3,5C000400,-0724,0839,11990,032.1,045.5,0.248,763.7,01.16,0.508
2016-02-19 01:07:00,1850E-3,5C000400,-0724,0838,12251,032.1,045.6,0.248,763.7,01.16,0.508
2016-02-19 01:08:00,2002E-3,5C000400,-0724,0839,12193,032.1,045.6,0.248,763.8,01.16,0.508
2016-02-19 01:09:00,1990E-3,5C000400,-0724,0839,12164,032.1,045.6,0.248,763.8,01.16,0.508
2016-02-19 01:10:00,1929E-3,5C000400,-0724,0838,12148,032.1,045.6,0.248,763.8,01.16,0.508
2016-02-19 01:11:00,1869E-3,5C000400,-0724,0838,12116,032.1,045.5,0.249,763.8,01.16,0.508
2016-02-19 01:12:00,1839E-3,5C000400,-0724,0839,12102,032.1,045.6,0.249,763.8,01.16,0.508
2016-02-19 01:13:00,1827E-3,5C000400,-0724,0838,12076,032.1,045.6,0.249,763.8,01.16,0.508
2016-02-19 01:14:00,1847E-3,5C000400,-0724,0838,12007,032.1,045.6,0.249,763.8,01.16,0.508
2016-02-19 01:15:00,1971E-3,5C000400,-0724,0839,12096,032.1,045.5,0.249,763.8,01.16,0.508
2016-02-19 01:16:00,1957E-3,5C000400,-0724,0838,12221,032.1,045.5,0.249,763.8,01.16,0.508
2016-02-19 01:17:00,1890E-3,5C000400,-0724,0838,12101,032.1,045.6,0.248,763.8,01.16,0.508
2016-02-19 01:18:00,1958E-3,5C000400,-0724,0839,12123,032.1,045.6,0.248,763.8,01.16,0.508
2016-02-19 01:19:00,1852E-3,5C000400,-0724,0838,12102,032.1,045.6,0.248,763.8,01.16,0.508
2016-02-19 01:20:00,1838E-3,5C000400,-0724,0838,11965,032.1,045.5,0.248,763.9,01.16,0.508
2016-02-19 01:21:00,1939E-3,5C000400,-0724,0838,12137,032.1,045.5,0.248,763.9,01.16,0.508
2016-02-19 01:22:00,1904E-3,5C000400,-0724,0838,12102,032.1,045.5,0.248,763.9,01.16,0.508
2016-02-19 01:23:00,1874E-3,5C000400,-0724,0839,12020,032.1,045.6,0.248,763.9,01.16,0.508
2016-02-19 01:24:00,1846E-3,5C000400,-0724,0838,12000,032.1,045.6,0.249,763.9,01.16,0.508
2016-02-19 01:25:00,1737E-3,5C000400,-0724,0838,12034,032.1,045.5,0.249,763.9,01.16,0.508
2016-02-19 01:26:00,1873E-3,5C000400,-0724,0838,12203,032.1,045.5,0.249,763.9,01.16,0.508
2016-02-19 01:27:00,1981E-3,5C000400,-0724,0838,11964,032.1,045.5,0.249,763.9,01.16,0.508
2016-02-19 01:28:00,1677E-3,5C000400,-0724,0838,12049,032.1,045.5,0.249,763.9,01.16,0.508
2016-02-19 01:29:00,1895E-3,5C000400,-0724,0838,12205,032.1,045.5,0.249,763.9,01.16,0.508
2016-02-19 01:30:00,1834E-3,5C000400,-0724,0838,12104,032.1,045.6,0.248,764.0,01.16,0.508
2016-02-19 01:31:00,1941E-3,5C000400,-0724,0838,12187,032.1,045.6,0.248,763.9,01.16,0.508
2016-02-19 01:32:00,1944E-3,5C000400,-0724,0837,12290,032.1,045.6,0.248,763.9,01.16,0.508
2016-02-19 01:33:00,1771E-3,5C000400,-0724,0837,12130,032.2,045.5,0.248,763.9,01.16,0.508
2016-02-19 01:34:00,1991E-3,5C000400,-0724,0837,12164,032.2,045.5,0.248,763.9,01.16,0.508
2016-02-19 01:35:00,2043E-3,5C000400,-0724,0839,12133,032.1,045.6,0.248,763.9,01.16,0.508
2016-02-19 01:36:00,1933E-3,5C000400,-0724,0838,12150,032.1,045.6,0.248,763.9,01.16,0.508
2016-02-19 01:37:00,1693E-3,5C000400,-0724,0838,12178,032.1,045.6,0.248,764.0,01.16,0.508
2016-02-19 01:38:00,1868E-3,5C000400,-0724,0838,12113,032.1,045.6,0.248,764.0,01.16,0.508
2016-02-19 01:39:00,1778E-3,5C000400,-0724,0838,12019,032.1,045.6,0.248,764.0,01.16,0.508
2016-02-19 01:40:00,1957E-3,5C000400,-0724,0839,12168,032.1,045.6,0.248,764.0,01.16,0.508
2016-02-19 01:41:00,1860E-3,5C000400,-0724,0838,12227,032.2,045.6,0.249,764.0,01.16,0.508
2016-02-19 01:42:00,1852E-3,5C000400,-0724,0838,12092,032.2,045.5,0.249,764.0,01.16,0.508
2016-02-19 01:43:00,1939E-3,5C000400,-0724,0838,12113,032.2,045.5,0.249,764.0,01.16,0.508
2016-02-19 01:44:00,1983E-3,5C000400,-0724,0838,11982,032.1,045.6,0.249,764.0,01.16,0.508
2016-02-19 01:45:00,1920E-3,5C000400,-0724,0838,12126,032.2,045.6,0.248,764.0,01.16,0.508
2016-02-19 01:46:00,1789E-3,5C000400,-0724,0838,12006,032.2,045.6,0.248,764.0,01.16,0.508
2016-02-19 01:47:00,1885E-3,5C000400,-0724,0839,12221,032.2,045.5,0.248,764.0,01.16,0.508
2016-02-19 01:48:00,1927E-3,5C000400,-0724,0839,11962,032.2,045.5,0.248,764.0,01.16,0.508
2016-02-19 01:49:00,1936E-3,5C000400,-0724,0839,12073,032.2,045.6,0.248,764.0,01.16,0.508
2016-02-19 01:50:00,1973E-3,5C000400,-0724,0839,12240,032.2,045.5,0.249,764.0,01.16,0.508
2016-02-19 01:51:00,1775E-3,5C000400,-0724,0839,12070,032.2,045.5,0.249,764.1,01.16,0.508
2016-02-19 01:52:00,1940E-3,5C000400,-0724,0838,12134,032.2,045.5,0.249,764.1,01.16,0.508
2016-02-19 01:53:00,1995E-3,5C000400,-0724,0838,12160,032.2,045.6,0.249,764.2,01.16,0.508
2016-02-19 01:54:00,1921E-3,5C000400,-0724,0838,12192,032.2,045.6,0.248,764.2,01.16,0.508
2016-02-19 01:55:00,1805E-3,5C000400,-0724,0839,12030,032.2,045.6,0.248,764.2,01.16,0.508
2016-02-19 01:56:00,1773E-3,5C000400,-0724,0838,12130,032.2,045.6,0.248,764.2,01.16,0.508
2016-02-19 01:57:00,1803E-3,5C000400,-0724,0838,12113,032.2,045.6,0.248,764.2,01.16,0.508
2016-02-19 01:58:00,1848E-3,5C000400,-0724,0838,12083,032.2,045.5,0.248,764.2,01.16,0.508
2016-02-19 01:59:00,1760E-3,5C000400,-0724,0839,12150,032.2,045.6,0.248,764.2,01.16,0.508
2016-02-19 02:00:00,1759E-3,5C000400,-0724,0839,12079,032.2,045.6,0.248,764.2,01.16,0.508
2016-02-19 02:01:00,1843E-3,5C000400,-0724,0838,12136,032.2,045.6,0.248,764.2,01.16,0.508
2016-02-19 02:02:00,1905E-3,5C000400,-0724,0838,12215,032.2,045.5,0.248,764.3,01.16,0.508
2016-02-19 02:03:00,1895E-3,5C000400,-0724,0837,12118,032.2,045.6,0.248,764.2,01.16,0.508
2016-02-19 02:04:00,1762E-3,5C000400,-0724,0837,11943,032.2,045.6,0.248,764.3,01.16,0.508
2016-02-19 02:05:00,1934E-3,5C000400,-0724,0837,12076,032.2,045.6,0.248,764.3,01.16,0.508
2016-02-19 02:06:00,2033E-3,5C000400,-0724,0838,12070,032.2,045.5,0.248,764.3,01.16,0.508
2016-02-19 02:07:00,1947E-3,5C000400,-0724,0838,12060,032.2,045.6,0.248,764.3,01.16,0.508
2016-02-19 02:08:00,2092E-3,5C000400,-0724,0838,12130,032.2,045.6,0.248,764.3,01.16,0.508
2016-02-19 02:09:00,1810E-3,5C000400,-0724,0838,12227,032.2,045.6,0.248,764.3,01.16,0.508
2016-02-19 02:10:00,1869E-3,5C000400,-0724,0838,12215,032.2,045.6,0.248,764.2,01.16,0.508
2016-02-19 02:11:00,1786E-3,5C000400,-0724,0838,12113,032.2,045.6,0.248,764.3,01.16,0.508
2016-02-19 02:12:00,1922E-3,5C000400,-0724,0838,12169,032.2,045.6,0.248,764.4,01.16,0.508
2016-02-19 02:13:00,1859E-3,5C000400,-0724,0839,12039,032.2,045.6,0.248,764.3,01.16,0.508
2016-02-19 02:14:00,1834E-3,5C000400,-0724,0839,12111,032.2,045.6,0.248,764.3,01.16,0.508
2016-02-19 02:15:00,1768E-3,5C000400,-0724,0839,12175,032.2,045.5,0.248,764.3,01.16,0.508
2016-02-19 02:16:00,1870E-3,5C000400,-0724,0838,12115,032.2,045.5,0.248,764.3,01.16,0.508
2016-02-19 02:17:00,1840E-3,5C000400,-0724,0839,12104,032.2,045.5,0.248,764.4,01.16,0.508
2016-02-19 02:18:00,1984E-3,5C000400,-0724,0838,12137,032.2,045.5,0.248,764.3,01.16,0.508
2016-02-19 02:19:00,2001E-3,5C000400,-0724,0838,11979,032.3,045.5,0.248,764.4,01.16,0.508
2016-02-19 02:20:00,1838E-3,5C000400,-0724,0838,12059,032.2,045.6,0.248,764.3,01.16,0.508
2016-02-19 02:21:00,1818E-3,5C000400,-0724,0839,12065,032.2,045.6,0.248,764.3,01.16,0.508
2016-02-19 02:22:00,1901E-3,5C000400,-0724,0839,12201,032.3,045.6,0.248,764.3,01.16,0.508
2016-02-19 02:23:00,1830E-3,5C000400,-0724,0838,12127,032.3,045.6,0.248,764.3,01.16,0.508
2016-02-19 02:24:00,1931E-3,5C000400,-0724,0838,12065,032.3,045.5,0.248,764.4,01.16,0.508
2016-02-19 02:25:00,1773E-3,5C000400,-0724,0839,12025,032.3,045.6,0.248,764.4,01.16,0.508
2016-02-19 02:26:00,1790E-3,5C000400,-0724,0838,12229,032.3,045.6,0.248,764.4,01.16,0.508
2016-02-19 02:27:00,1906E-3,5C000400,-0724,0838,12092,032.3,045.6,0.248,764.4,01.16,0.508
2016-02-19 02:28:00,1738E-3,5C000400,-0724,0838,12071,032.3,045.6,0.248,764.4,01.16,0.508
2016-02-19 02:29:00,1788E-3,5C000400,-0724,0839,12098,032.3,045.6,0.248,764.5,01.16,0.508
2016-02-19 02:30:00,1858E-3,5C000400,-0724,0838,12086,032.3,045.6,0.248,764.5,01.16,0.508
2016-02-19 02:31:00,1832E-3,5C000400,-0724,0839,12070,032.3,045.6,0.248,764.4,01.16,0.508
2016-02-19 02:32:00,1770E-3,5C000400,-0724,0838,12128,032.3,045.5,0.248,764.4,01.16,0.508
2016-02-19 02:33:00,1963E-3,5C000400,-0724,0839,12129,032.3,045.6,0.248,764.5,01.16,0.508
2016-02-19 02:34:00,1919E-3,5C000400,-0724,0839,12163,032.3,045.6,0.248,764.5,01.16,0.508
2016-02-19 02:35:00,1878E-3,5C000400,-0724,0838,12103,032.3,045.6,0.248,764.5,01.16,0.508
2016-02-19 02:36:00,1975E-3,5C000400,-0724,0838,12143,032.3,045.5,0.248,764.5,01.16,0.508
2016-02-19 02:37:00,1916E-3,5C000400,-0724,0838,12123,032.3,045.5,0.248,764.5,01.16,0.508
2016-02-19 02:38:00,1937E-3,5C000400,-0724,0838,12140,032.3,045.6,0.248,764.5,01.16,0.508
2016-02-19 02:39:00,1834E-3,5C000400,-0724,0839,12061,032.3,045.6,0.248,764.5,01.16,0.508
2016-02-19 02:40:00,1929E-3,5C000400,-0724,0839,12030,032.3,045.5,0.248,764.5,01.16,0.508
2016-02-19 02:41:00,1941E-3,5C000400,-0724,0838,12079,032.3,045.6,0.248,764.5,01.16,0.508
2016-02-19 02:42:00,1805E-3,5C000400,-0724,0839,12175,032.3,045.6,0.249,764.5,01.16,0.508
2016-02-19 02:43:00,1927E-3,5C000400,-0724,0838,11938,032.3,045.6,0.249,764.6,01.16,0.508
2016-02-19 02:44:00,1836E-3,5C000400,-0724,0839,12210,032.3,045.6,0.248,764.5,01.16,0.508
2016-02-19 02:45:00,1810E-3,5C000400,-0724,0838,12087,032.3,045.6,0.247,764.6,01.16,0.508
2016-02-19 02:46:00,1834E-3,5C000400,-0724,0839,12079,032.3,045.6,0.247,764.6,01.16,0.508
2016-02-19 02:47:00,1883E-3,5C000400,-0724,0839,12206,032.3,045.6,0.248,764.6,01.16,0.508
2016-02-19 02:48:00,1852E-3,5C000400,-0724,0839,12051,032.3,045.6,0.248,764.6,01.16,0.508
2016-02-19 02:49:00,1766E-3,5C000400,-0724,0838,12093,032.3,045.6,0.248,764.7,01.16,0.508
2016-02-19 02:50:00,1863E-3,5C000400,-0724,0839,12261,032.3,045.6,0.248,764.7,01.16,0.508
2016-02-19 02:51:00,1886E-3,5C000400,-0724,0839,12202,032.3,045.6,0.248,764.7,01.16,0.508
2016-02-19 02:52:00,2031E-3,5C000400,-0724,0839,12149,032.3,045.6,0.248,764.8,01.16,0.508
2016-02-19 02:53:00,1854E-3,5C000400,-0724,0839,12171,032.4,045.6,0.248,764.8,01.16,0.508
2016-02-19 02:54:00,1944E-3,5C000400,-0724,0838,12146,032.3,045.6,0.248,764.8,01.16,0.508
2016-02-19 02:55:00,1843E-3,5C000400,-0724,0838,12168,032.3,045.6,0.248,764.8,01.16,0.508
2016-02-19 02:56:00,1812E-3,5C000400,-0724,0838,11956,032.4,045.6,0.248,764.8,01.16,0.508
2016-02-19 02:57:00,1975E-3,5C000400,-0724,0838,12165,032.3,045.6,0.248,764.8,01.16,0.508
2016-02-19 02:58:00,1867E-3,5C000400,-0724,0838,12128,032.3,045.6,0.248,764.7,01.16,0.508
2016-02-19 02:59:00,1959E-3,5C000400,-0724,0839,12079,032.3,045.6,0.248,764.7,01.16,0.508
2016-02-19 03:00:00,1854E-3,5C000400,-0724,0839,12130,032.3,045.6,0.248,764.8,01.16,0.508
2016-02-19 03:01:00,1913E-3,5C000400,-0724,0838,12195,032.4,045.5,0.248,764.9,01.16,0.508
2016-02-19 03:02:00,1883E-3,5C000400,-0724,0838,12113,032.4,045.5,0.248,764.8,01.16,0.508
2016-02-19 03:03:00,1839E-3,5C000400,-0724,0839,12015,032.4,045.6,0.247,764.8,01.16,0.508
2016-02-19 03:04:00,1782E-3,5C000400,-0724,0838,12099,032.3,045.6,0.247,764.8,01.16,0.508
2016-02-19 03:05:00,1975E-3,5C000400,-0724,0839,12172,032.4,045.6,0.248,764.8,01.16,0.508
2016-02-19 03:06:00,1813E-3,5C000400,-0724,0839,12108,032.4,045.6,0.248,764.7,01.16,0.508
2016-02-19 03:07:00,1838E-3,5C000400,-0724,0838,12177,032.4,045.6,0.248,764.8,01.16,0.508
2016-02-19 03:08:00,1910E-3,5C000400,-0724,0838,12082,032.4,045.6,0.248,764.8,01.16,0.508
2016-02-19 03:09:00,1887E-3,5C000400,-0724,0838,12053,032.4,045.6,0.248,764.7,01.16,0.508
2016-02-19 03:10:00,1833E-3,5C000400,-0724,0838,11992,032.4,045.6,0.248,764.8,01.16,0.508
2016-02-19 03:11:00,1913E-3,5C000400,-0724,0840,12013,032.4,045.6,0.248,764.8,01.16,0.508
2016-02-19 03:12:00,1976E-3,5C000400,-0724,0838,12087,032.4,045.6,0.248,764.8,01.16,0.508
2016-02-19 03:13:00,1930E-3,5C000400,-0724,0838,11958,032.4,045.6,0.248,764.8,01.16,0.508
2016-02-19 03:14:00,1860E-3,5C000400,-0724,0839,12250,032.4,045.6,0.248,764.8,01.16,0.508
2016-02-19 03:15:00,1862E-3,5C000400,-0724,0839,12018,032.4,045.6,0.248,764.8,01.16,0.508
2016-02-19 03:16:00,1819E-3,5C000400,-0724,0839,12156,032.4,045.6,0.248,764.8,01.16,0.508
2016-02-19 03:17:00,1894E-3,5C000400,-0724,0838,12162,032.4,045.6,0.248,764.8,01.16,0.508
2016-02-19 03:18:00,1775E-3,5C000400,-0724,0839,12183,032.4,045.6,0.247,764.8,01.16,0.508
2016-02-19 03:19:00,1885E-3,5C000400,-0724,0838,12040,032.4,045.6,0.247,764.8,01.16,0.508
2016-02-19 03:20:00,2005E-3,5C000400,-0724,0838,12082,032.4,045.6,0.247,764.8,01.16,0.508
2016-02-19 03:21:00,1856E-3,5C000400,-0724,0839,11991,032.4,045.6,0.248,764.9,01.16,0.508
2016-02-19 03:22:00,1789E-3,5C000400,-0724,0839,12082,032.4,045.6,0.248,764.9,01.16,0.508
2016-02-19 03:23:00,1877E-3,5C000400,-0724,0839,12266,032.4,045.6,0.248,764.9,01.16,0.508
2016-02-19 03:24:00,1881E-3,5C000400,-0724,0839,12230,032.4,045.6,0.248,764.9,01.16,0.508
2016-02-19 03:25:00,1892E-3,5C000400,-0724,0838,12064,032.4,045.5,0.248,764.9,01.16,0.508
2016-02-19 03:26:00,1914E-3,5C000400,-0724,0838,12177,032.4,045.5,0.248,764.9,01.16,0.508
2016-02-19 03:27:00,1952E-3,5C000400,-0724,0838,12060,032.4,045.6,0.248,764.9,01.16,0.508
2016-02-19 03:28:00,1987E-3,5C000400,-0724,0839,12246,032.4,045.6,0.248,764.9,01.16,0.508
2016-02-19 03:29:00,1740E-3,5C000400,-0724,0838,12168,032.4,045.5,0.248,764.9,01.16,0.508
2016-02-19 03:30:00,1858E-3,5C000400,-0724,0839,12214,032.5,045.6,0.248,765.0,01.16,0.508
2016-02-19 03:31:00,1881E-3,5C000400,-0724,0839,12216,032.4,045.6,0.247,765.0,01.16,0.508
2016-02-19 03:32:00,1814E-3,5C000400,-0724,0839,12056,032.4,045.5,0.247,765.0,01.16,0.508
2016-02-19 03:33:00,1863E-3,5C000400,-0724,0839,12143,032.5,045.6,0.247,765.0,01.16,0.508
2016-02-19 03:34:00,1944E-3,5C000400,-0724,0840,11992,032.5,045.6,0.248,765.0,01.16,0.508
2016-02-19 03:35:00,1813E-3,5C000400,-0724,0838,12029,032.4,045.6,0.248,764.9,01.16,0.508
2016-02-19 03:36:00,1996E-3,5C000400,-0724,0838,11892,032.4,045.6,0.248,765.0,01.16,0.508
2016-02-19 03:37:00,1852E-3,5C000400,-0724,0839,12189,032.4,045.6,0.248,765.0,01.16,0.508
2016-02-19 03:38:00,1913E-3,5C000400,-0724,0838,12078,032.5,045.6,0.248,765.1,01.16,0.508
2016-02-19 03:39:00,1917E-3,5C000400,-0724,0838,12133,032.5,045.6,0.248,765.1,01.16,0.508
2016-02-19 03:40:00,1874E-3,5C000400,-0724,0838,12133,032.5,045.6,0.248,765.1,01.16,0.508
2016-02-19 03:41:00,1783E-3,5C000400,-0724,0839,12133,032.5,045.5,0.248,765.1,01.16,0.508
2016-02-19 03:42:00,1962E-3,5C000400,-0724,0838,12176,032.5,045.6,0.248,765.0,01.16,0.508
2016-02-19 03:43:00,1839E-3,5C000400,-0724,0839,12215,032.4,045.6,0.248,765.0,01.16,0.508
2016-02-19 03:44:00,1883E-3,5C000400,-0724,0838,12157,032.5,045.6,0.248,765.0,01.16,0.508
2016-02-19 03:45:00,1955E-3,5C000400,-0724,0839,12079,032.5,045.5,0.248,765.1,01.16,0.508
2016-02-19 03:46:00,1746E-3,5C000400,-0724,0839,12124,032.5,045.6,0.248,765.1,01.16,0.508
2016-02-19 03:47:00,1862E-3,5C000400,-0724,0839,11893,032.5,045.6,0.248,765.1,01.16,0.508
2016-02-19 03:48:00,1848E-3,5C000400,-0724,0838,12083,032.5,045.5,0.248,765.1,01.16,0.508
2016-02-19 03:49:00,1856E-3,5C000400,-0724,0839,12217,032.5,045.6,0.248,765.1,01.16,0.508
2016-02-19 03:50:00,1896E-3,5C000400,-0724,0839,12270,032.5,045.6,0.248,765.1,01.16,0.508
2016-02-19 03:51:00,1824E-3,5C000400,-0724,0838,12148,032.5,045.6,0.247,765.0,01.16,0.508
2016-02-19 03:52:00,1854E-3,5C000400,-0724,0839,12056,032.5,045.6,0.247,765.1,01.16,0.508
2016-02-19 03:53:00,1788E-3,5C000400,-0724,0839,12166,032.5,045.6,0.247,765.0,01.16,0.508
2016-02-19 03:54:00,1821E-3,5C000400,-0724,0838,12163,032.5,045.6,0.248,765.1,01.16,0.508
2016-02-19 03:55:00,1896E-3,5C000400,-0724,0840,12125,032.5,045.6,0.248,765.1,01.16,0.508
2016-02-19 03:56:00,2038E-3,5C000400,-0724,0839,12241,032.5,045.6,0.248,765.1,01.16,0.508
2016-02-19 03:57:00,2029E-3,5C000400,-0724,0838,12171,032.5,045.5,0.248,765.1,01.16,0.508
2016-02-19 03:58:00,1886E-3,5C000400,-0724,0838,12138,032.5,045.6,0.247,765.1,01.16,0.508
2016-02-19 03:59:00,1821E-3,5C000400,-0724,0839,12051,032.5,045.6,0.247,765.1,01.16,0.508
2016-02-19 04:00:00,2049E-3,5C000400,-0724,0839,12049,032.5,045.6,0.248,765.2,01.16,0.508
2016-02-19 04:01:00,1915E-3,5C000400,-0724,0838,11989,032.5,045.6,0.248,765.1,01.16,0.508
2016-02-19 04:02:00,1738E-3,5C000400,-0724,0838,12018,032.5,045.6,0.247,765.2,01.16,0.508
2016-02-19 04:03:00,2000E-3,5C000400,-0724,0839,11910,032.4,045.6,0.247,765.1,01.16,0.508
2016-02-19 04:04:00,1763E-3,5C000400,-0724,0838,12084,032.4,045.6,0.248,765.1,01.16,0.508
2016-02-19 04:05:00,1765E-3,5C000400,-0724,0839,12111,032.4,045.6,0.248,765.1,01.16,0.508
2016-02-19 04:06:00,1968E-3,5C000400,-0724,0838,12036,032.4,045.6,0.247,765.2,01.16,0.508
2016-02-19 04:07:00,1723E-3,5C000400,-0724,0838,12258,032.4,045.6,0.247,765.2,01.16,0.508
2016-02-19 04:08:00,1811E-3,5C000400,-0724,0838,12270,032.4,045.6,0.248,765.2,01.16,0.508
2016-02-19 04:09:00,1893E-3,5C000400,-0724,0839,12104,032.4,045.6,0.248,765.1,01.16,0.508
2016-02-19 04:10:00,1868E-3,5C000400,-0724,0839,12129,032.3,045.6,0.248,765.1,01.16,0.508
2016-02-19 04:11:00,1888E-3,5C000400,-0724,0838,12102,032.3,045.6,0.247,765.1,01.16,0.508
2016-02-19 04:12:00,1899E-3,5C000400,-0724,0839,12103,032.3,045.6,0.247,765.1,01.16,0.508
2016-02-19 04:13:00,1850E-3,5C000400,-0724,0838,12086,032.3,045.6,0.248,765.2,01.16,0.508
2016-02-19 04:14:00,1788E-3,5C000400,-0724,0839,12120,032.3,045.6,0.248,765.2,01.16,0.508
2016-02-19 04:15:00,1803E-3,5C000400,-0724,0839,12038,032.3,045.6,0.248,765.2,01.16,0.508
2016-02-19 04:16:00,1932E-3,5C000400,-0724,0839,12057,032.3,045.6,0.248,765.3,01.16,0.508
2016-02-19 04:17:00,1994E-3,5C000400,-0724,0838,12125,032.3,045.6,0.248,765.2,01.16,0.508
2016-02-19 04:18:00,1908E-3,5C000400,-0724,0839,12032,032.2,045.6,0.248,765.3,01.16,0.508
2016-02-19 04:19:00,1817E-3,5C000400,-0724,0838,12102,032.2,045.6,0.248,765.2,01.16,0.508
2016-02-19 04:20:00,1808E-3,5C000400,-0724,0838,12171,032.2,045.6,0.248,765.3,01.16,0.508